Regional Weather Roundup
Issued by NWS Cleveland, OH

Home | Current Version | Previous Version | Graphics & Text | Print | Product List | Glossary On
Versions: 1 2 3 4 5 6 7 8 9 10 11 12 13 14 15 16 17 18 19 20 21 22 23 24 25 26 27 28 29 30 31 32 33 34 35 36 37 38 39 40 41 42 43 44 45 46 47 48 49 50
000
ASUS41 KCLE 181400
RWRCLE
OHIO REGIONAL WEATHER ROUNDUP
NATIONAL WEATHER SERVICE WILMINGTON, OH
1000 AM EDT THU SEP 18 2014

NOTE: "FAIR" INDICATES FEW OR NO CLOUDS BELOW 12,000 FEET WITH NO
SIGNIFICANT WEATHER AND/OR OBSTRUCTIONS TO VISIBILITY.

OHZ001>008-015>018-024>027-034-035-043-044-181500-
   NORTHWEST OHIO

CITY           SKY/WX    TMP DP  RH WIND       PRES   REMARKS
DEFIANCE       SUNNY     57  48  72 NE8       30.13R
FINDLAY        SUNNY     62  52  69 N9        30.11R
TOLEDO EXPRESS SUNNY     57  50  77 NE3       30.12R
TOLEDO METCALF SUNNY     60  52  74 N6        30.13R
LIMA           SUNNY     60  52  74 NE8       30.11R
$$

OHZ009>014-019>023-028>033-038-089-181500-
   NORTHEAST OHIO

CITY           SKY/WX    TMP DP  RH WIND       PRES   REMARKS
CLE-HOPKINS    MOSUNNY   60  52  74 CALM      30.11R
CLE-LAKEFRONT  SUNNY     63  51  65 CALM      30.08R
CUY CO. ARPT   MOSUNNY   61  54  77 CALM      30.09R
LORAIN-ELYRIA  SUNNY     66  54  65 N5        30.10R
ASHTABULA      SUNNY     60  54  80 CALM      30.09R
AKRON-CANTON   SUNNY     63  49  60 N6        30.09R
WOOSTER        NOT AVBL
MANSFIELD      SUNNY     62  49  62 N5        30.11R
YOUNGSTOWN     MOSUNNY   58  50  75 NW5       30.09R
$$

OHZ042-051>053-060>062-070>072-077>081-181500-
  SOUTHWEST OHIO

CITY           SKY/WX    TMP DP  RH WIND       PRES   REMARKS
CINC-COVINGTON SUNNY     60  50  69 NE6       30.09R
CINC-LUNKEN    SUNNY     59  51  75 CALM      30.10R
HAMILTON       SUNNY     60  52  74 VRB3      30.11R
DAYTON         NOT AVBL
WRIGHT-PAT AFB SUNNY     56  51  82 NE3       30.10R
DAYTON GENERAL SUNNY     61  51  70 NE3       30.09R
WILMINGTON     SUNNY     59  50  72 NE7       30.09R
$$

OHZ036-037-039>041-045>050-054>059-063>069-073>076-082>088-181500-
  CENTRAL AND SOUTHEAST OHIO

CITY           SKY/WX    TMP DP  RH WIND       PRES   REMARKS
COLUMBUS       SUNNY     62  50  64 N5        30.08R
OSU AIRPORT    SUNNY     60  51  72 NE5       30.09R
BOLTON FIELD   SUNNY     61  52  72 NE3       30.09R
RICKENBACK AFB NOT AVBL
NEWARK         SUNNY     60  51  72 NE3       30.09R
MARION         SUNNY     60  52  74 N5        30.11R HAZE
LANCASTER      SUNNY     62  52  69 NE3       30.09R
ZANESVILLE     SUNNY     60  50  69 NE3       30.09R
NEW PHILLY     SUNNY     59  52  77 CALM      30.09R
$$


USA.gov is the U.S. government's official web portal to all federal, state and local government web resources and services.